User: anonymous   Login
Location: Unspecified
(0.0000°N, 0.0000°E)
Time: 06:18:22
(UTC+00:00)
Language:

LES 1 - Orbit

View from above orbital plane
View from above orbital plane
View from above satellite
View from above satellite

Ground track
Ground track

The orbit data is extracted from the following two-line orbital elements,

1  1002U 65008C   17119.13276918 +.00000008 +00000-0 -64828-4 0  9999
2  1002 032.1476 027.7144 0014582 097.7299 262.4854 09.88352325886127
Epoch (UTC): 29 April 2017 03:11:11
Eccentricity: 0.0014582
inclination: 32.1476°
perigee height: 2780 km
apogee height: 2807 km
right ascension of ascending node: 27.7144°
argument of perigee: 97.7299°
revolutions per day: 9.88352325
mean anomaly at epoch: 262.4854°
orbit number at epoch: 88612

The dashed part of the orbit path shows where the satellite is in the earth's shadow,  

DLR